{"data":{"norad_id":62807,"epoch":"2026-09-21T22:46:26.158368Z","epoch_age_seconds":46102,"freshness":"FRESH","line1":"1 62807U 25018B   26264.94891387  .00008490  00000+0  26217-3 0  9999","line2":"2 62807  53.1567 114.6584 0001059  83.1952 276.9171 15.34393261 93275","mean_motion":15.34393261,"eccentricity":0.0001059,"inclination_deg":53.1567,"raan_deg":114.6584,"arg_perigee_deg":83.1952,"mean_anomaly_deg":276.9171,"bstar":0.00026217,"rev_number":9327,"period_min":93.848170257312,"perigee_km":461.998822906,"apogee_km":463.44771711119,"semimajor_km":6840.8602700086,"source":"CELESTRAK","updated_at":"2026-09-22T09:00:49.666513Z"}}